Miscellaneous Local Product
Issued by NWS North Platte, NE

Home | Current Version | Previous Version | Text Only | Print | Product List | Glossary On
Versions: 1 2 3 4 5 6 7 8 9 10 11 12 13 14 15 16 17 18 19 20 21 22 23 24 25 26 27 28 29 30 31 32 33 34 35 36 37 38 39 40 41 42 43 44 45 46 47 48 49 50
000
AXUS43 KLBF 261210
MISLBF


WESTERN AND NORTH CENTRAL NEBRASKA HOURLY WEATHER ROUNDUP
NATIONAL WEATHER SERVICE NORTH PLATTE NE
600 AM CST FRI DEC 26 2014

***STATIONS NOT REPORTING VARIABLES SUCH AS SKY/WEATHER OR
PRESSURE ARE PROVIDED BY THE NEBRASKA DEPARTMENT OF
ROADS...RAWS...AND APRS NETWORKS...AND ARE NOT UNDER
NATIONAL WEATHER SERVICE QUALITY CONTROL***

...OBSERVATIONS IN AND NEAR THE EASTERN PANHANDLE OF NEBRASKA...

CITY           SKY/WX    TMP DP  RH WIND       PRES   REMARKS
PINE RIDGE     LGT SNOW  20  16  84 N10       30.03R FOG     WCI   9
CHADRON        LGT SNOW  20  17  88 NE7       30.03R VSB 3/4 WCI  11
ALLIANCE       CLOUDY    16  14  92 N8        29.97R WCI   5
SIDNEY         FLURRIES  18  15  88 NE13      29.94R WCI   5
WHITECLAY        N/A     19  15  86 NE10        N/A  WCI   7
CRESCENT LAKE    N/A     17  14  88 N9          N/A  WCI   6
LISCO            N/A     22  15  75 W7          N/A  WCI  14
BIG SPRINGS      N/A     22  17  82 N9          N/A  WCI  12
$$

...OBSERVATIONS IN NORTH CENTRAL NEBRASKA...

CITY           SKY/WX    TMP DP  RH WIND       PRES   REMARKS
VALENTINE      CLOUDY    21  18  88 N12       30.02S WCI   9
THEDFORD       CLOUDY    24  21  89 N12G22    29.97R WCI  13
AINSWORTH      CLOUDY    23  21  92 N14       29.99S WCI  11
O`NEILL        CLOUDY    26  25  96 N15       29.98S WCI  14
ORD            CLOUDY    26  21  81 N18G25    29.95R WCI  13
BROKEN BOW     CLOUDY    25  21  85 N21G31    29.94R WCI  11
BROWNLEE         N/A     21  18  88 E16         N/A  WCI   7
SPRINGVIEW       N/A     22  19  86 CALM        N/A
BREWSTER         N/A     27  25  90 N14         N/A  WCI  16
ROSE             N/A     28  28 100 N5          N/A  WCI  22
SARGENT          N/A     25  22  88 N8G16       N/A  WCI  16
COMSTOCK         N/A     30  27  86 N15         N/A  WCI  19
CHAMBERS         N/A     24  22  90 NE8         N/A  WCI  15
EWING            N/A     26  25  94 CALM        N/A
$$

...OBSERVATIONS IN SOUTHWEST NEBRASKA AND FAR NORTHEAST COLORADO...

CITY           SKY/WX    TMP DP  RH WIND       PRES   REMARKS
WRAY           CLOUDY    25  23  94 N16G23    29.92S FOG     WCI  12
IMPERIAL       CLOUDY    23  19  85 N17       29.95R WCI   9
OGALLALA       CLOUDY    23  18  81 N13       29.97S WCI  11
NORTH PLATTE   CLOUDY    24  20  84 N17       29.96R WCI  11
MCCOOK         CLOUDY    26  21  81 N18       29.94R WCI  13
LEXINGTON      CLOUDY    27  23  83 N20G25    29.95R WCI  14
PAXTON           N/A     24  20  86 N12         N/A  WCI  13
BRADY            N/A     24  20  83 CALM        N/A
GOTHENBURG       N/A     23  19  85 N12         N/A  WCI  12
CALLAWAY         N/A     23  21  93 N13         N/A  WCI  11
$$

...NORTH PLATTE AREA...

CITY           SKY/WX    TMP DP  RH WIND       PRES   REMARKS
AIRPORT        CLOUDY    24  20  84 N17       29.96R WCI  11
DOWNTOWN         N/A     23  20  87 N7G15       N/A  WCI  15
$$

...SOME WEATHER OBSERVATIONS FROM AROUND THE REGION...

CITY           SKY/WX    TMP DP  RH WIND       PRES   REMARKS
DENVER         LGT SNOW  16  14  92 N5        29.88S VSB 1   WCI   9
LARAMIE        CLOUDY     4   0  83 CALM      29.76S
CHEYENNE       LGT SNOW  11   8  88 N5        29.85R FOG     WCI   3
SCOTTSBLUFF    LGT SNOW  18  14  84 CALM      29.99R FOG
RAPID CITY     CLOUDY    20  16  84 N9        30.04R WCI   9
PIERRE         CLOUDY    25  21  85 N13       30.08R WCI  14
WINNER         LGT SNOW  25  22  88 N14       30.05R FOG     WCI  13
SIOUX FALLS    CLOUDY    27  23  85 N17       29.97R WCI  14
OMAHA          CLOUDY    34  31  88 N12       29.90R WCI  25
GRAND ISLAND   CLOUDY    27  24  89 N18       29.94R WCI  14
KANSAS CITY    CLOUDY    45  33  63 S12       29.86R
WICHITA        CLOUDY    38  29  70 N14       29.85R WCI  30
HAYS           CLOUDY    30  19  64 N16G22    29.90R WCI  19
LIBERAL        CLOUDY    30  21  69 N18       29.88R WCI  18
GOODLAND       CLOUDY    24  22  91 N16G22    29.89R WCI  11
$$



USA.gov is the U.S. government's official web portal to all federal, state and local government web resources and services.